Content
SEND FEEDBACK

Daily
Averages
Monthly
Summary
Turkmenistan

ASHGABAT, TURKMENISTAN


Home > Asia > Turkmenistan
Elevation: 236 meters     Latitude: 37 58N     Longitude: 058 20E

WEATHER
 
SELECT A DAY
Number of Records: 182,348;   Date Range: 3/15/97 - 11/21/14
 
SHARE

PRINT THIS DATA

[ ← Previous Day ]
WEATHER ALMANAC - 5 OCTOBER, 2013
[ Next Day → ]
[ °F ]   °C
Weather ElementAverageHighLow
Temperature23 °C26 °C (3:00 pm)20 °C (6:00 am)
Dewpoint11.7 °C13.3 °C (11:00 am)5 °C (1:00 am)
Humidity47.5 %64 % (6:00 am)22 % (2:00 am)
Barometer1010.8 hPa1013.9 hPa (11:00 pm)1006.8 hPa (2:00 am)
Wind Speed20 km/h28.8 km/h (6:00 am)
Weather ElementAverage
Visibility9.7 km
Wind DirectionWNW (280 °)

Weather ElementTotal
Precipitation---
Cooling Degree Days4.7 (Base 18.3)
Growing Degree Days13 (Base 10)
Averaged from 29 records on 5 October, 2013
WEATHER CONDITIONS BREAKOUT
WIND DIRECTION BREAKOUT
WEATHER BY HOUR - 5 OCTOBER, 2013
[ °F ]   °C
Local TimeTemperatureDewpointHumidityBarometerVisibilityWind DirectionWind SpeedGust SpeedPrecipitationEventsConditions
1:00 AM25 °C5 °C28 %1007.1 hPa10 kmWest (260°)10.8 km/hClear
2:00 AM24.4 °C6.7 °C22 %1006.8 hPa9.7 kmWNW (300°)25.3 km/h
2:00 AM25 °C8 °C34 %1007.1 hPaNorthClear
3:00 AM24 °C11 °C44 %1008.1 hPa6.9 kmWNW (290°)21.6 km/hClear
4:00 AM22 °C13 °C57 %1008.1 hPa8 kmWNW (290°)18 km/hClear
5:00 AM21.7 °C11.7 °C43 %1007.8 hPa9.7 kmWNW (300°)25.3 km/h
5:00 AM22 °C13 °C57 %1008.1 hPa10 kmWNW (290°)25.3 km/hClear
6:00 AM20 °C13 °C64 %1009.1 hPa10 kmWNW (300°)28.8 km/hClear
7:00 AM20 °C13 °C64 %1010.2 hPa10 kmWNW (290°)28.8 km/hClear
8:00 AM20 °C13 °C64 %1011.2 hPa10 kmWNW (290°)25.3 km/hClear
9:00 AM20 °C13 °C64 %1011.2 hPa10 kmWNW (290°)25.3 km/hClear
10:00 AM22 °C13 °C57 %1012.2 hPa10 kmWNW (300°)25.3 km/hClear
11:00 AM22.2 °C13.3 °C47 %1011.9 hPa9.7 kmWNW (300°)25.3 km/h
11:00 AM23 °C13 °C53 %1012.2 hPa10 kmWNW (300°)25.3 km/hClear
12:00 PM24 °C13 °C50 %1012.2 hPa10 kmWNW (300°)21.6 km/hClear
2:00 PM25 °C12.8 °C35 %1011.2 hPa9.7 kmNW (320°)18 km/h
2:00 PM25 °C12 °C44 %1011.2 hPa10 kmWNW (300°)18 km/hClear
3:00 PM26 °C12 °C42 %1011.2 hPa10 kmNW (310°)18 km/hClear
4:00 PM26 °C11 °C39 %1011.2 hPa10 kmWNW (300°)21.6 km/hClear
5:00 PM25.6 °C12.2 °C34 %1011.2 hPa9.7 kmWNW (300°)18 km/h
5:00 PM26 °C12 °C42 %1011.2 hPa10 kmWNW (300°)18 km/hClear
6:00 PM25 °C12 °C44 %1012.2 hPa10 kmWNW (300°)21.6 km/hClear
7:00 PM23 °C12 °C50 %1012.2 hPa10 kmWNW (290°)21.6 km/hClear
8:00 PM22.8 °C12.2 °C42 %1012.5 hPa9.7 kmWest (270°)14.3 km/h
8:00 PM23 °C12 °C50 %1013.2 hPa10 kmWest (280°)14.3 km/hClear
9:00 PM22 °C12 °C53 %1013.2 hPa10 kmWest (270°)10.8 km/hClear
10:00 PM22 °C11 °C50 %1013.2 hPa10 kmWest (260°)10.8 km/hClear
11:00 PM20 °C12.2 °C51 %1013.9 hPa9.7 kmWest (260°)10.8 km/h
11:00 PM21 °C11 °C53 %1013.2 hPa10 kmWest (260°)10.8 km/hClear
Hourly data recorded from UTAA, located 0 kilometers away from Ashgabat, Turkmenistan







STORIES FROM OUR PARTNERS